Theta_e
301 301 301 300 301 300 299 300 300 301 301 301 301 300 299 298 298 298 298 300 302 303 304 305 305 306 306 306 307 307 307 307 308 310 309 310 312 313 314 313 312 312 312
300 300 301 300 301 300 300 300 301 301 301 301 301 300 300 298 298 298 298 298 300 300 302 304 304 305 305 305 306 306 306 306 307 308 308 308 311 312 312 313 314 315 315
300 300 300 300 301 299 299 300 300 300 301 301 301 300 300 299 299 298 298 298 298 298 299 301 302 303 304 304 305 305 305 305 306 307 307 308 310 310 311 311 313 314 315
299 300 300 300 301 299 300 300 300 300 300 301 300 300 300 300 299 298 298 298 298 297 297 299 300 301 302 303 304 304 304 304 305 304 306 306 307 308 309 309 310 312 313
300 299 300 300 300 299 300 300 300 300 300 301 300 300 301 300 299 298 298 298 298 298 298 297 298 298 300 301 302 302 303 303 303 304 305 305 306 307 307 307 308 310 312
301 300 299 300 300 300 300 300 300 299 300 301 301 300 301 301 300 299 299 298 298 298 298 298 298 298 298 299 300 301 301 301 302 303 304 304 305 306 306 307 307 309 311
301 300 300 299 300 300 299 300 300 300 299 300 300 299 301 301 300 299 299 298 299 299 298 298 298 297 297 298 298 299 299 300 302 303 303 303 306 304 305 307 308 308 309
301 301 300 299 300 300 300 300 300 300 300 300 300 298 295 299 299 299 299 299 298 298 298 299 298 298 297 297 298 297 297 299 300 301 302 302 303 304 305 305 306 307 309
301 301 300 300 299 300 300 300 300 300 300 299 300 299 293 296 296 299 299 299 299 299 298 298 298 297 297 298 297 297 297 299 299 299 300 301 302 303 304 305 307 308 308
301 301 300 300 300 300 300 300 300 300 300 300 299 300 299 298 295 295 299 299 299 299 298 298 297 298 297 298 297 297 298 298 298 299 299 300 300 301 302 305 306 306 308
302 301 300 300 300 299 300 300 300 300 300 300 299 299 299 299 299 297 294 298 299 298 298 298 297 297 297 297 297 297 298 298 298 298 299 299 299 299 301 303 304 306 307
302 301 301 300 300 300 299 300 300 300 300 300 299 299 299 298 298 297 294 295 297 298 298 298 297 297 297 297 297 297 298 298 297 298 298 298 298 298 299 302 305 305 305
302 302 302 301 300 300 299 300 300 300 300 300 299 299 299 299 299 298 298 296 296 297 298 297 297 297 296 296 297 297 298 297 297 298 297 298 297 297 298 300 301 302 302
302 302 302 302 301 300 300 300 300 300 300 300 299 299 299 299 299 298 298 297 294 295 297 297 297 296 296 296 297 297 297 296 297 296 296 297 297 297 298 299 299 299 299
303 303 303 302 301 300 300 300 300 300 300 300 299 299 299 299 299 299 298 298 297 294 294 297 297 297 297 296 296 297 297 296 296 296 295 297 296 297 296 297 297 297 298
303 304 303 303 302 301 300 300 300 299 300 299 299 299 299 299 299 299 298 298 297 297 294 297 297 297 297 297 296 297 296 296 295 294 295 296 297 296 297 296 296 296 297
304 304 304 303 302 302 301 301 300 300 300 300 299 299 299 299 299 298 298 298 297 297 296 297 297 297 298 297 296 297 296 296 295 293 294 296 296 296 296 295 296 295 294
304 304 304 304 303 302 302 301 301 300 300 300 299 299 298 299 299 299 298 298 297 296 297 296 296 297 298 297 297 296 296 296 295 292 294 295 294 295 296 296 295 294 294
305 304 304 304 303 302 302 301 301 300 300 299 299 299 298 298 298 298 298 298 297 297 296 297 296 297 298 297 297 296 296 296 295 292 291 293 293 294 295 295 295 294 293
304 304 304 304 303 303 302 301 301 300 300 299 299 298 298 298 298 298 298 298 297 297 296 296 296 297 297 297 297 296 296 295 294 292 291 292 292 292 293 294 294 293 294
304 304 304 303 303 303 302 302 301 300 300 299 299 299 298 298 298 298 298 297 297 297 296 296 296 297 297 296 296 296 295 294 292 292 292 292 292 291 290 291 291 293 294
303 303 303 303 303 302 302 302 301 301 300 299 299 299 298 298 298 300 300 299 297 296 296 296 296 296 296 297 296 295 293 291 292 292 292 292 293 291 291 292 292 294 294
303 303 303 302 302 302 302 302 301 301 300 299 299 299 298 298 298 298 298 300 300 300 299 297 296 297 297 298 297 295 293 293 293 293 293 292 292 292 291 292 292 294 293
303 302 302 302 302 302 302 301 301 302 302 300 299 299 298 298 298 297 297 297 297 299 300 300 300 300 300 299 298 297 294 294 293 291 293 291 293 292 291 292 292 293 292
302 302 302 302 302 302 302 301 301 303 303 302 301 300 299 299 298 298 298 297 297 296 296 296 298 299 299 298 297 294 294 294 292 292 292 293 292 290 291 292 291 292 291
303 302 302 302 302 302 302 302 301 302 302 302 301 300 300 299 299 299 299 298 296 296 296 295 297 298 299 298 297 297 296 294 292 291 293 292 291 290 290 291 290 291 291
Wind_Speed
4 3 1 1 1 4 3 4 6 5 5 6 5 7 6 7 5 8 10 9 11 12 12 12 13 13 12 13 14 15 15 16 16 18 17 17 17 17 17 16 17 18 18
5 4 3 2 3 4 1 2 4 4 3 5 6 2 6 2 3 6 9 11 9 11 12 12 13 13 12 13 13 15 15 16 16 16 17 16 17 17 17 18 18 18 18
7 6 5 5 5 4 1 1 2 3 1 3 3 3 3 3 2 5 6 10 11 14 12 11 12 13 12 13 14 15 15 16 18 17 18 18 19 18 19 19 21 20 20
10 10 8 7 7 5 3 3 3 4 4 5 5 3 4 5 4 3 5 7 7 11 15 11 13 13 14 13 15 15 16 17 17 18 17 18 18 20 19 20 21 22 21
12 11 10 8 8 7 5 5 6 6 6 6 8 7 7 9 4 2 3 4 6 9 14 11 11 13 13 14 14 14 17 18 19 19 20 20 19 20 20 21 22 21 22
15 13 12 11 11 10 7 7 8 7 7 8 11 9 9 10 8 2 4 5 7 9 10 12 11 14 11 14 13 15 17 20 19 20 21 22 21 21 21 21 21 22 22
18 16 15 14 13 12 10 9 9 7 8 6 11 7 2 6 8 5 4 4 6 11 10 13 10 12 12 12 10 14 19 19 19 21 21 21 20 20 20 20 21 21 22
21 20 18 17 16 15 13 12 10 9 7 3 3 3 3 1 6 6 6 5 5 11 10 9 10 12 10 13 15 20 17 15 19 20 21 20 19 19 21 20 20 20 22
24 24 22 20 18 17 17 16 13 13 10 7 5 3 2 2 5 3 2 5 10 11 13 12 9 14 11 14 16 21 18 16 18 21 20 19 19 20 20 20 21 22 21
24 25 25 23 21 20 20 18 16 15 14 12 7 10 10 5 2 4 4 9 15 12 15 11 14 13 14 13 16 20 15 15 18 19 20 20 20 20 21 23 22 22 23
27 27 27 26 26 25 24 21 19 19 19 16 15 12 10 13 14 10 4 7 12 17 12 16 11 14 10 12 16 20 15 14 19 18 20 21 19 19 21 22 21 23 20
31 30 29 29 28 27 27 25 23 22 21 22 19 18 18 10 8 9 6 8 14 15 18 13 10 10 7 12 14 14 12 14 17 17 18 18 18 18 20 19 20 21 21
34 35 31 31 31 30 28 27 26 26 26 25 24 23 21 22 19 19 18 12 7 14 12 16 10 9 11 15 16 15 15 15 18 16 17 17 17 18 19 20 23 24 25
37 34 32 32 32 31 30 29 29 30 29 29 27 26 25 23 21 20 19 14 4 4 8 8 13 6 14 14 17 13 15 20 16 18 18 17 15 19 19 19 21 21 22
38 37 35 34 34 33 33 32 34 34 32 30 29 27 27 26 24 24 22 20 16 3 3 5 6 10 17 16 17 15 16 19 20 19 21 16 16 19 19 19 20 21 21
38 38 38 37 35 35 34 34 34 34 34 34 33 31 30 29 27 26 25 23 22 22 5 9 17 25 20 20 17 17 17 19 23 23 18 17 17 19 19 18 18 20 21
38 39 38 37 37 37 36 35 36 36 35 35 34 32 32 31 29 27 25 25 24 24 18 24 26 25 22 20 18 19 14 18 22 21 16 16 15 17 17 17 15 18 22
36 37 38 38 37 39 38 38 38 38 38 39 38 36 36 32 31 30 28 28 26 25 26 21 26 27 23 19 20 15 14 18 22 24 18 12 15 15 15 17 15 16 20
35 35 37 39 40 39 39 40 40 39 40 41 40 39 37 35 35 34 32 31 30 27 27 27 25 27 24 22 20 13 15 18 21 24 11 10 17 13 14 15 14 15 19
33 35 37 38 40 41 42 42 42 42 42 42 42 41 38 38 37 36 34 33 32 29 27 27 28 28 23 21 17 14 16 20 24 24 9 16 14 11 13 13 12 12 18
31 33 35 38 39 40 41 42 42 42 42 42 42 43 42 41 37 37 35 34 32 32 29 27 22 22 21 19 17 10 13 18 23 13 15 21 18 14 16 15 11 12 17
28 29 33 36 39 42 43 43 41 41 42 42 41 43 43 38 37 34 32 29 29 32 32 26 21 19 23 19 14 11 12 10 5 8 22 28 15 15 15 15 10 12 15
26 29 32 34 38 41 42 41 40 40 41 41 41 41 38 39 38 40 36 32 32 30 27 28 28 25 26 25 19 15 13 12 15 19 19 18 14 16 17 8 9 11 16
26 28 30 33 36 40 40 39 37 38 40 42 42 42 41 39 37 39 40 39 38 36 33 31 30 31 29 24 23 21 17 16 18 20 13 6 11 17 8 5 15 9 15
25 27 29 30 32 35 35 36 34 34 37 39 39 43 43 42 40 35 33 37 38 39 37 34 34 32 29 22 18 16 17 15 11 6 12 9 6 15 6 2 13 11 14
26 25 27 29 30 33 31 31 31 32 32 33 32 35 41 40 40 35 33 36 33 41 36 31 27 25 23 21 19 19 20 19 14 8 4 3 5 9 5 3 13 14 14
Wind_Direction
184 171 274 309 321 340 10 41 22 22 23 17 345 356 13 16 21 19 22 31 20 17 15 14 10 9 9 6 2 360 357 353 351 351 345 341 342 341 338 331 322 320 317
192 207 213 255 254 307 56 14 355 349 13 357 360 297 4 8 11 5 2 15 22 17 13 11 7 1 3 360 357 355 354 352 349 345 340 337 335 337 334 332 328 322 317
220 230 233 251 274 287 292 299 303 326 314 343 320 358 278 341 311 331 345 357 8 13 13 8 3 1 359 354 353 353 352 348 345 345 340 336 330 331 331 326 330 328 324
234 232 229 245 268 283 291 310 307 320 321 321 327 294 251 286 266 260 325 340 357 360 357 356 355 359 357 354 354 354 351 348 346 340 335 331 328 323 324 324 320 320 324
246 239 230 235 259 279 271 284 298 302 315 315 320 294 267 257 279 268 281 308 344 335 349 353 349 349 350 350 350 350 349 347 344 340 335 330 324 319 316 314 313 313 317
248 247 235 231 246 263 252 264 283 295 300 309 313 294 274 246 248 309 285 267 330 331 337 347 340 345 340 342 341 346 344 339 335 335 332 330 324 323 318 317 311 308 309
242 245 241 237 239 252 256 253 278 288 306 309 317 325 344 237 231 270 297 273 316 332 313 325 314 339 333 327 330 339 335 336 335 332 328 326 323 319 316 317 312 309 308
240 245 244 241 234 240 247 248 260 268 287 276 314 335 354 8 229 283 234 245 345 338 330 328 300 324 317 314 317 333 339 338 336 335 331 326 324 323 321 314 311 310 309
237 241 245 246 239 237 240 246 248 249 261 270 252 227 38 248 315 209 241 212 325 336 336 324 324 316 300 306 311 332 338 336 339 336 334 332 329 326 323 319 317 313 313
241 240 242 244 243 241 242 246 247 247 256 253 265 236 243 234 190 321 271 259 298 324 326 322 321 315 293 294 323 338 337 332 335 336 335 331 329 327 325 325 324 315 312
242 244 243 241 240 239 241 243 244 239 243 245 242 243 241 242 240 230 278 286 283 311 317 319 321 315 304 312 329 338 331 325 332 333 332 332 330 328 327 325 318 313 318
242 242 241 242 243 242 239 240 242 244 243 244 245 240 238 226 227 224 240 263 285 307 309 305 305 318 306 320 322 327 325 325 332 332 332 330 328 326 325 318 326 324 328
239 239 237 237 239 241 242 240 241 243 244 244 245 244 245 246 250 254 258 271 267 301 303 305 310 304 317 325 320 319 317 326 333 331 332 330 328 326 321 318 324 326 327
246 246 243 243 244 243 242 240 242 244 245 247 248 249 252 252 250 250 255 265 301 277 282 263 307 282 324 321 322 313 310 326 334 335 333 327 330 327 321 325 328 326 325
246 245 246 247 246 244 241 239 240 242 245 248 250 250 251 255 254 256 257 258 244 275 278 271 275 288 320 320 320 314 310 321 333 333 329 324 325 330 324 323 323 325 324
246 245 246 246 247 245 240 239 241 243 245 247 248 248 249 251 252 255 255 254 247 244 247 271 276 301 309 313 315 312 304 314 328 330 330 325 317 321 323 320 322 325 325
249 244 246 247 247 247 244 239 239 242 243 247 248 250 251 251 253 253 251 251 249 245 244 272 280 296 297 306 311 310 293 313 324 328 326 323 319 319 320 322 319 328 329
251 248 247 245 245 245 247 245 242 241 241 243 247 246 248 249 250 252 252 250 251 254 254 263 278 287 291 301 302 293 295 313 319 326 323 317 327 322 319 322 319 328 334
250 249 243 242 243 243 245 247 248 248 247 249 250 250 249 248 248 250 250 252 252 255 257 262 271 280 287 296 300 277 297 311 317 328 321 319 326 323 319 318 314 325 333
250 248 246 245 244 245 246 247 249 250 250 251 252 253 253 249 248 249 248 250 252 253 253 259 266 272 282 289 286 279 297 311 319 328 304 326 328 321 314 315 315 321 331
249 251 248 247 248 246 248 249 249 250 249 251 252 254 253 251 251 251 249 249 247 249 250 248 255 264 266 280 275 283 294 310 319 320 324 334 341 337 338 336 308 321 322
248 250 248 248 249 249 248 248 249 248 248 247 248 254 256 252 250 245 243 245 248 244 243 239 245 245 259 268 267 271 290 314 317 319 325 321 334 343 339 337 331 321 335
248 248 250 252 254 256 256 252 247 245 247 246 247 249 250 251 251 251 246 244 245 242 241 246 244 246 256 262 261 267 275 275 273 302 310 311 329 338 346 357 3 335 345
249 252 255 256 258 261 263 261 251 244 244 248 248 252 251 250 252 250 251 249 245 243 239 239 245 256 259 264 263 270 276 279 287 301 294 267 317 337 9 43 5 6 352
248 250 257 261 262 268 267 265 258 245 244 246 248 250 251 252 254 249 245 248 250 251 249 245 246 251 259 258 254 249 248 262 290 286 306 253 310 335 338 331 9 356 1
255 260 263 265 267 268 271 270 264 247 248 248 249 248 251 250 253 246 236 239 239 251 249 246 238 237 240 236 227 244 258 252 250 295 208 265 304 354 323 280 353 9 8